Location: Newark
(11.6000°N, 43.1667°E)
Time: 00:24:16
(UTC+00:00)

Envisat - Pass Details

Date: 26 September 2019
Orbit: 764 x 766 km, 98.1° (Epoch: 19 October)

Event Time Altitude Azimuth Distance (km) Brightness Sun altitude
Rises 15:30:12 0° 165° (SSE) 3,220 6.1 -8.0°
Reaches altitude 10° 15:32:30 10° 164° (SSE) 2,294 5.3 -8.5°
Maximum altitude 15:37:33 80° 78° (ENE) 778 2.9 -9.8°
Drops below altitude 10° 15:42:37 10° 351° (N) 2,293 5.6 -11.0°
Sets 15:44:55 0° 351° (N) 3,219 6.4 -11.6°
